• En España
  • Lista de países
  • Para 7 días
  • Temperatura del agua
  • Mapa Satelital
  • El tiempo en el mapa
  • Informadores
  • user-avatar
    Iniciar sesión

    Tiempo cada hora La Massana

    Hoy, 23 Mayo, Miércoles

    Tiempo Temperatura Precipitaciones Viento Presión Humedad
    00:00 +6°C° 0 mm 1 mps 611 mmHg 91%
    01:00 +6°C° 0 mm 1 mps 611 mmHg 91%
    02:00 +6°C° 0 mm 1 mps 611 mmHg 91%
    03:00 +6°C° 0 mm 1 mps 611 mmHg 91%
    04:00 +6°C° 0 mm 1 mps 611 mmHg 89%
    05:00 +7°C° 0 mm 1 mps 611 mmHg 87%
    06:00 +8°C° 0 mm 1 mps 612 mmHg 83%
    07:00 +9°C° 0,2 mm 1 mps 613 mmHg 79%
    08:00 +10°C° 0,2 mm 1 mps 613 mmHg 75%
    09:00 +12°C° 0,2 mm 1 mps 614 mmHg 70%
    10:00 +12°C° 0,6 mm 1 mps 614 mmHg 68%
    11:00 +13°C° 0,6 mm 2 mps 614 mmHg 66%
    12:00 +13°C° 0,6 mm 2 mps 614 mmHg 64%
    13:00 +14°C° 0,4 mm 2 mps 614 mmHg 64%
    14:00 +14°C° 0,4 mm 2 mps 614 mmHg 64%
    15:00 +14°C° 0,4 mm 2 mps 614 mmHg 64%
    16:00 +13°C° 0,8 mm 2 mps 614 mmHg 70%
    17:00 +12°C° 0,8 mm 1 mps 613 mmHg 75%
    18:00 +12°C° 0,8 mm 1 mps 613 mmHg 81%
    19:00 +10°C° 0,2 mm 1 mps 613 mmHg 84%
    20:00 +9°C° 0,2 mm 1 mps 612 mmHg 87%
    21:00 +8°C° 0,2 mm 1 mps 612 mmHg 91%
    22:00 +7°C° 0,3 mm 1 mps 612 mmHg 91%
    23:00 +7°C° 0,3 mm 1 mps 612 mmHg 91%

    Mañana, 24 Mayo, Jueves

    Tiempo Temperatura Precipitaciones Viento Presión Humedad
    00:00 +7°C° 0,3 mm 1 mps 612 mmHg 91%
    01:00 +7°C° 0,1 mm 1 mps 612 mmHg 91%
    02:00 +7°C° 0,1 mm 1 mps 611 mmHg 90%
    03:00 +6°C° 0,1 mm 1 mps 611 mmHg 90%
    04:00 +7°C° 0 mm 1 mps 611 mmHg 88%
    05:00 +8°C° 0 mm 1 mps 612 mmHg 86%
    06:00 +9°C° 0 mm 1 mps 612 mmHg 84%
    07:00 +11°C° 0 mm 1 mps 613 mmHg 76%
    08:00 +12°C° 0 mm 1 mps 614 mmHg 68%
    09:00 +14°C° 0 mm 2 mps 615 mmHg 60%
    10:00 +15°C° 0,1 mm 2 mps 615 mmHg 57%
    11:00 +16°C° 0,1 mm 3 mps 615 mmHg 54%
    12:00 +17°C° 0,1 mm 3 mps 615 mmHg 50%
    13:00 +17°C° 0,2 mm 3 mps 615 mmHg 51%
    14:00 +17°C° 0,2 mm 3 mps 615 mmHg 51%
    15:00 +17°C° 0,2 mm 3 mps 615 mmHg 51%
    16:00 +16°C° 0,1 mm 3 mps 614 mmHg 56%
    17:00 +15°C° 0,1 mm 2 mps 614 mmHg 61%
    18:00 +14°C° 0,1 mm 2 mps 614 mmHg 66%
    19:00 +13°C° 0 mm 2 mps 613 mmHg 70%
    20:00 +11°C° 0 mm 1 mps 613 mmHg 74%
    21:00 +9°C° 0 mm 1 mps 612 mmHg 78%
    22:00 +9°C° 0 mm 1 mps 612 mmHg 75%
    23:00 +8°C° 0 mm 1 mps 612 mmHg 71%

    Pasado mañana, 25 Mayo, Viernes

    Tiempo Temperatura Precipitaciones Viento Presión Humedad
    00:00 +7°C° 0 mm 2 mps 611 mmHg 67%
    01:00 +7°C° 0 mm 2 mps 611 mmHg 65%
    02:00 +7°C° 0 mm 2 mps 611 mmHg 63%
    03:00 +7°C° 0 mm 2 mps 611 mmHg 61%
    04:00 +8°C° 0 mm 2 mps 611 mmHg 62%
    05:00 +8°C° 0 mm 2 mps 612 mmHg 62%
    06:00 +9°C° 0 mm 2 mps 612 mmHg 63%
    07:00 +12°C° 0,1 mm 2 mps 613 mmHg 57%
    08:00 +14°C° 0,1 mm 3 mps 614 mmHg 51%
    09:00 +17°C° 0,1 mm 3 mps 614 mmHg 45%
    10:00 +18°C° 0 mm 4 mps 615 mmHg 43%
    11:00 +19°C° 0 mm 4 mps 615 mmHg 40%
    12:00 +20°C° 0 mm 5 mps 615 mmHg 38%
    13:00 +20°C° 0 mm 5 mps 615 mmHg 38%
    14:00 +19°C° 0 mm 5 mps 614 mmHg 38%
    15:00 +19°C° 0 mm 5 mps 614 mmHg 38%
    16:00 +18°C° 0 mm 4 mps 613 mmHg 44%
    17:00 +15°C° 0 mm 4 mps 613 mmHg 49%
    18:00 +14°C° 0 mm 3 mps 612 mmHg 54%
    19:00 +12°C° 0 mm 3 mps 611 mmHg 56%
    20:00 +10°C° 0 mm 2 mps 611 mmHg 59%
    21:00 +8°C° 0 mm 2 mps 610 mmHg 61%
    22:00 +8°C° 0 mm 2 mps 610 mmHg 61%
    23:00 +8°C° 0 mm 2 mps 610 mmHg 61%

    26 Mayo, Sábado

    Tiempo Temperatura Precipitaciones Viento Presión Humedad
    00:00 +7°C° 0 mm 2 mps 610 mmHg 61%
    01:00 +7°C° 0 mm 2 mps 610 mmHg 64%
    02:00 +7°C° 0 mm 2 mps 610 mmHg 67%
    03:00 +7°C° 0 mm 2 mps 610 mmHg 70%
    04:00 +8°C° 0 mm 2 mps 610 mmHg 70%
    05:00 +9°C° 0 mm 2 mps 611 mmHg 69%
    06:00 +9°C° 0 mm 2 mps 611 mmHg 68%
    07:00 +12°C° 0 mm 3 mps 612 mmHg 61%
    08:00 +14°C° 0 mm 4 mps 613 mmHg 54%
    09:00 +17°C° 0 mm 4 mps 614 mmHg 47%
    10:00 +18°C° 0 mm 4 mps 614 mmHg 45%
    11:00 +19°C° 0 mm 5 mps 615 mmHg 42%
    12:00 +20°C° 0 mm 5 mps 615 mmHg 39%
    13:00 +20°C° 0 mm 5 mps 615 mmHg 41%
    14:00 +19°C° 0 mm 4 mps 614 mmHg 43%
    15:00 +19°C° 0 mm 4 mps 614 mmHg 44%
    16:00 +17°C° 0 mm 4 mps 614 mmHg 50%
    17:00 +16°C° 0 mm 3 mps 613 mmHg 56%
    18:00 +14°C° 0 mm 3 mps 612 mmHg 61%
    19:00 +12°C° 0 mm 3 mps 612 mmHg 66%
    20:00 +10°C° 0 mm 2 mps 611 mmHg 70%
    21:00 +9°C° 0 mm 2 mps 611 mmHg 74%
    22:00 +8°C° 0 mm 2 mps 611 mmHg 74%
    23:00 +8°C° 0 mm 2 mps 611 mmHg 73%

    27 Mayo, Domingo

    Tiempo Temperatura Precipitaciones Viento Presión Humedad
    00:00 +7°C° 0 mm 2 mps 611 mmHg 72%
    01:00 +7°C° 0 mm 2 mps 611 mmHg 74%
    02:00 +7°C° 0 mm 2 mps 611 mmHg 75%
    03:00 +8°C° 0 mm 1 mps 610 mmHg 76%
    04:00 +9°C° 0 mm 1 mps 611 mmHg 74%
    05:00 +10°C° 0 mm 1 mps 611 mmHg 73%
    06:00 +11°C° 0 mm 1 mps 612 mmHg 71%
    07:00 +13°C° 0 mm 1 mps 613 mmHg 62%
    08:00 +15°C° 0 mm 2 mps 614 mmHg 54%
    09:00 +17°C° 0 mm 2 mps 615 mmHg 45%
    10:00 +18°C° 0 mm 2 mps 615 mmHg 45%
    11:00 +19°C° 0 mm 3 mps 615 mmHg 44%
    12:00 +19°C° 0 mm 3 mps 616 mmHg 44%
    13:00 +19°C° 0,5 mm 3 mps 615 mmHg 48%
    14:00 +18°C° 0,5 mm 3 mps 615 mmHg 52%
    15:00 +18°C° 0,5 mm 3 mps 614 mmHg 56%
    16:00 +17°C° 0,7 mm 2 mps 614 mmHg 61%
    17:00 +16°C° 0,7 mm 2 mps 613 mmHg 67%
    18:00 +15°C° 0,7 mm 2 mps 613 mmHg 72%
    19:00 +14°C° 0,3 mm 1 mps 612 mmHg 75%
    20:00 +12°C° 0,3 mm 1 mps 612 mmHg 78%
    21:00 +11°C° 0,3 mm 1 mps 611 mmHg 81%
    22:00 +10°C° 0,7 mm 1 mps 611 mmHg 83%
    23:00 +10°C° 0,7 mm 1 mps 611 mmHg 84%

    28 Mayo, Lunes

    Tiempo Temperatura Precipitaciones Viento Presión Humedad
    00:00 +9°C° 0,7 mm 2 mps 611 mmHg 86%
    01:00 +9°C° 1,4 mm 1 mps 611 mmHg 87%
    02:00 +9°C° 1,4 mm 1 mps 610 mmHg 89%
    03:00 +9°C° 1,4 mm 1 mps 610 mmHg 90%
    04:00 +9°C° 1,5 mm 1 mps 610 mmHg 91%
    05:00 +9°C° 1,5 mm 1 mps 610 mmHg 91%
    06:00 +9°C° 1,5 mm 1 mps 610 mmHg 92%
    07:00 +10°C° 0,8 mm 1 mps 610 mmHg 90%
    08:00 +10°C° 0,8 mm 2 mps 611 mmHg 88%
    09:00 +10°C° 0,8 mm 2 mps 611 mmHg 86%
    10:00 +12°C° 0,9 mm 2 mps 611 mmHg 83%
    11:00 +12°C° 0,9 mm 3 mps 611 mmHg 80%
    12:00 +12°C° 0,9 mm 3 mps 611 mmHg 78%
    13:00 +12°C° 1,1 mm 3 mps 611 mmHg 78%
    14:00 +12°C° 1,1 mm 3 mps 611 mmHg 78%
    15:00 +13°C° 1,1 mm 2 mps 611 mmHg 78%
    16:00 +13°C° 0,5 mm 2 mps 610 mmHg 80%
    17:00 +12°C° 0,5 mm 2 mps 610 mmHg 82%
    18:00 +12°C° 0,5 mm 2 mps 610 mmHg 84%
    19:00 +11°C° 0,1 mm 1 mps 610 mmHg 88%
    20:00 +9°C° 0,1 mm 1 mps 610 mmHg 92%
    21:00 +8°C° 0,1 mm 1 mps 610 mmHg 97%
    22:00 +8°C° 0 mm 1 mps 610 mmHg 96%
    23:00 +7°C° 0 mm 0 mps 610 mmHg 96%
    Mostrar más